| time (UTC) | temp F | wind direction | speed MPH | gust MPH | rain 1hr in | rain 24hr in | rain mn in | humidity % | barometer mb |
| 20260505015732 | 57 | 210 | 0.0 | 1.0 | 0.00 | 0.00 | 0.00 | 70 | 1012.5 |
| 20260505015234 | 57 | 194 | 0.0 | 0.0 | 0.00 | 0.00 | 0.00 | 70 | 1012.4 |
| 20260505014731 | 56 | 205 | 0.0 | 1.0 | 0.00 | 0.00 | 0.00 | 69 | 1012.4 |
| 20260505014231 | 56 | 200 | 0.0 | 1.0 | 0.00 | 0.00 | 0.00 | 70 | 1012.4 |
| 20260505013733 | 56 | 204 | 0.0 | 0.0 | 0.00 | 0.00 | 0.00 | 70 | 1012.4 |
| 20260505013225 | 56 | 179 | 0.0 | 0.0 | 0.00 | 0.00 | 0.00 | 69 | 1012.3 |
| 20260505012213 | 57 | 213 | 0.0 | 0.0 | 0.00 | 0.00 | 0.00 | 69 | 1012.3 |
| 20260505011707 | 57 | 205 | 0.0 | 0.0 | 0.00 | 0.00 | 0.00 | 68 | 1012.1 |
| 20260505011200 | 57 | 206 | 0.0 | 0.0 | 0.00 | 0.00 | 0.00 | 67 | 1012.0 |
| 20260505010655 | 57 | 212 | 0.0 | 0.0 | 0.00 | 0.00 | 0.00 | 67 | 1012.0 |
| 20260505010148 | 57 | 220 | 0.0 | 0.0 | 0.00 | 0.00 | 0.00 | 66 | 1012.0 |
| 20260505005643 | 58 | 226 | 0.0 | 0.0 | 0.00 | 0.00 | 0.00 | 66 | 1011.9 |
| 20260505005136 | 58 | 148 | 0.0 | 0.0 | 0.00 | 0.00 | 0.00 | 65 | 1012.0 |
| 20260505004630 | 58 | 219 | 0.0 | 1.0 | 0.00 | 0.00 | 0.00 | 64 | 1011.9 |
| 20260505003617 | 58 | 207 | 0.0 | 6.0 | 0.00 | 0.00 | 0.00 | 63 | 1011.6 |
| 20260505003111 | 59 | 204 | 0.0 | 0.0 | 0.00 | 0.00 | 0.00 | 62 | 1011.5 |
| 20260505002604 | 59 | 200 | 0.0 | 1.0 | 0.00 | 0.00 | 0.00 | 62 | 1011.5 |
| 20260505001553 | 60 | 191 | 0.0 | 0.0 | 0.00 | 0.00 | 0.00 | 60 | 1011.3 |
| 20260505001046 | 60 | 231 | 0.0 | 0.0 | 0.00 | 0.00 | 0.00 | 60 | 1011.3 |
| 20260505000034 | 60 | 215 | 0.0 | 2.0 | 0.00 | 0.00 | 0.00 | 58 | 1011.1 |
| 20260504235528 | 61 | 200 | 0.0 | 2.0 | 0.00 | 0.00 | 0.00 | 58 | 1011.1 |
| 20260504235023 | 61 | 222 | 0.0 | 2.0 | 0.00 | 0.00 | 0.00 | 57 | 1010.9 |
| 20260504234517 | 61 | 160 | 0.0 | 2.0 | 0.00 | 0.00 | 0.00 | 57 | 1010.7 |
| 20260504234010 | 62 | 158 | 0.0 | 3.0 | 0.00 | 0.00 | 0.00 | 56 | 1010.7 |
| 20260504233505 | 62 | 221 | 1.0 | 8.0 | 0.00 | 0.00 | 0.00 | 55 | 1010.6 |
| 20260504232958 | 62 | 219 | 1.0 | 8.0 | 0.00 | 0.00 | 0.00 | 55 | 1010.6 |
| 20260504231951 | 62 | 201 | 0.0 | 3.0 | 0.00 | 0.00 | 0.00 | 54 | 1010.4 |
| 20260504231451 | 63 | 210 | 0.0 | 3.0 | 0.00 | 0.00 | 0.00 | 54 | 1010.4 |
| 20260504230951 | 63 | 210 | 0.0 | 3.0 | 0.00 | 0.00 | 0.00 | 54 | 1010.3 |
| 20260504230450 | 63 | 246 | 0.0 | 6.0 | 0.00 | 0.00 | 0.00 | 53 | 1010.2 |
| 20260504225948 | 63 | 239 | 0.0 | 6.0 | 0.00 | 0.00 | 0.00 | 52 | 1010.3 |
| 20260504225448 | 64 | 210 | 1.0 | 4.0 | 0.00 | 0.00 | 0.00 | 53 | 1010.2 |
| 20260504224947 | 64 | 217 | 1.0 | 4.0 | 0.00 | 0.00 | 0.00 | 52 | 1010.2 |
| 20260504224446 | 64 | 235 | 1.0 | 6.0 | 0.00 | 0.00 | 0.00 | 51 | 1010.1 |
| 20260504223446 | 65 | 211 | 1.0 | 4.0 | 0.00 | 0.00 | 0.00 | 51 | 1010.1 |
| 20260504222948 | 65 | 167 | 1.0 | 5.0 | 0.00 | 0.00 | 0.00 | 51 | 1010.1 |
| 20260504221946 | 66 | 200 | 0.0 | 6.0 | 0.00 | 0.00 | 0.00 | 49 | 1010.1 |
| 20260504221446 | 67 | 242 | 0.0 | 5.0 | 0.00 | 0.00 | 0.00 | 48 | 1010.1 |
| 20260504220946 | 67 | 150 | 1.0 | 7.0 | 0.00 | 0.00 | 0.00 | 47 | 1010.2 |
| 20260504220446 | 67 | 250 | 1.0 | 7.0 | 0.00 | 0.00 | 0.00 | 46 | 1010.2 |
| 20260504215947 | 68 | 217 | 1.0 | 6.0 | 0.00 | 0.00 | 0.00 | 46 | 1010.3 |
| 20260504215440 | 69 | 225 | 1.0 | 6.0 | 0.00 | 0.00 | 0.00 | 44 | 1010.3 |
| 20260504213938 | 69 | 140 | 0.0 | 8.0 | 0.00 | 0.00 | 0.00 | 38 | 1010.3 |
| 20260504212439 | 69 | 188 | 0.0 | 4.0 | 0.00 | 0.00 | 0.00 | 37 | 1010.4 |
| 20260504211938 | 70 | 189 | 0.0 | 3.0 | 0.00 | 0.00 | 0.00 | 39 | 1010.3 |
| 20260504211438 | 70 | 83 | 0.0 | 5.0 | 0.00 | 0.00 | 0.00 | 38 | 1010.4 |
| 20260504210939 | 69 | 190 | 0.0 | 7.0 | 0.00 | 0.00 | 0.00 | 39 | 1010.4 |
| 20260504210438 | 69 | 210 | 0.0 | 7.0 | 0.00 | 0.00 | 0.00 | 38 | 1010.4 |
| 20260504205938 | 69 | 203 | 1.0 | 10.0 | 0.00 | 0.00 | 0.00 | 39 | 1010.4 |
| 20260504204939 | 69 | 196 | 0.0 | 7.0 | 0.00 | 0.00 | 0.00 | 38 | 1010.3 |
| 20260504204439 | 70 | 160 | 0.0 | 2.0 | 0.00 | 0.00 | 0.00 | 38 | 1010.4 |
| 20260504203939 | 69 | 211 | 0.0 | 3.0 | 0.00 | 0.00 | 0.00 | 38 | 1010.5 |
| 20260504203439 | 70 | 50 | 0.0 | 3.0 | 0.00 | 0.00 | 0.00 | 37 | 1010.4 |
| 20260504202437 | 69 | 150 | 1.0 | 7.0 | 0.00 | 0.00 | 0.00 | 38 | 1010.5 |
| 20260504201937 | 69 | 219 | 2.0 | 8.0 | 0.00 | 0.00 | 0.00 | 36 | 1010.3 |
| 20260504201438 | 69 | 213 | 2.0 | 10.0 | 0.00 | 0.00 | 0.00 | 36 | 1010.4 |
| 20260504200938 | 69 | 207 | 1.0 | 10.0 | 0.00 | 0.00 | 0.00 | 35 | 1010.6 |
| 20260504200438 | 70 | 207 | 1.0 | 6.0 | 0.00 | 0.00 | 0.00 | 36 | 1010.6 |
| 20260504195938 | 69 | 198 | 1.0 | 6.0 | 0.00 | 0.00 | 0.00 | 35 | 1010.7 |
| 20260504195437 | 70 | 157 | 1.0 | 6.0 | 0.00 | 0.00 | 0.00 | 35 | 1010.8 |
| 20260504194939 | 70 | 233 | 1.0 | 8.0 | 0.00 | 0.00 | 0.00 | 38 | 1010.8 |
| 20260504194439 | 70 | 196 | 0.0 | 8.0 | 0.00 | 0.00 | 0.00 | 36 | 1010.7 |
| 20260504193938 | 69 | 207 | 1.0 | 6.0 | 0.00 | 0.00 | 0.00 | 38 | 1010.7 |
| 20260504193438 | 70 | 203 | 1.0 | 6.0 | 0.00 | 0.00 | 0.00 | 36 | 1010.8 |
| 20260504192440 | 70 | 111 | 0.0 | 4.0 | 0.00 | 0.00 | 0.00 | 36 | 1010.9 |
| 20260504191933 | 70 | 210 | 0.0 | 7.0 | 0.00 | 0.00 | 0.00 | 36 | 1010.9 |
| 20260504191426 | 70 | 98 | 1.0 | 7.0 | 0.00 | 0.00 | 0.00 | 34 | 1011.1 |
| 20260504190920 | 69 | 160 | 1.0 | 6.0 | 0.00 | 0.00 | 0.00 | 36 | 1011.1 |
| 20260504190417 | 69 | 174 | 1.0 | 6.0 | 0.00 | 0.00 | 0.00 | 37 | 1011.1 |
| 20260504185917 | 69 | 210 | 1.0 | 6.0 | 0.00 | 0.00 | 0.00 | 36 | 1011.0 |
| 20260504184918 | 69 | 141 | 1.0 | 8.0 | 0.00 | 0.00 | 0.00 | 36 | 1011.1 |
| 20260504184418 | 69 | 162 | 0.0 | 4.0 | 0.00 | 0.00 | 0.00 | 36 | 1011.2 |
| 20260504183917 | 69 | 193 | 0.0 | 4.0 | 0.00 | 0.00 | 0.00 | 37 | 1011.2 |
| 20260504183419 | 69 | 255 | 0.0 | 3.0 | 0.00 | 0.00 | 0.00 | 36 | 1011.4 |
| 20260504182915 | 70 | 163 | 0.0 | 4.0 | 0.00 | 0.00 | 0.00 | 37 | 1011.1 |
| 20260504182415 | 70 | 217 | 1.0 | 6.0 | 0.00 | 0.00 | 0.00 | 36 | 1011.1 |
| 20260504181917 | 69 | 169 | 1.0 | 6.0 | 0.00 | 0.00 | 0.00 | 37 | 1011.3 |
| 20260504181417 | 69 | 105 | 1.0 | 9.0 | 0.00 | 0.00 | 0.00 | 37 | 1011.3 |
| 20260504180915 | 69 | 138 | 1.0 | 9.0 | 0.00 | 0.00 | 0.00 | 37 | 1011.4 |
| 20260504180414 | 69 | 231 | 1.0 | 6.0 | 0.00 | 0.00 | 0.00 | 37 | 1011.4 |
| 20260504175413 | 68 | 208 | 2.0 | 5.0 | 0.00 | 0.00 | 0.00 | 35 | 1011.6 |
| 20260504174913 | 69 | 307 | 2.0 | 8.0 | 0.00 | 0.00 | 0.00 | 39 | 1011.6 |
| 20260504174408 | 69 | 204 | 1.0 | 9.0 | 0.00 | 0.00 | 0.00 | 36 | 1011.5 |
| 20260504173902 | 69 | 208 | 1.0 | 9.0 | 0.00 | 0.00 | 0.00 | 36 | 1011.6 |
| 20260504173356 | 69 | 160 | 1.0 | 7.0 | 0.00 | 0.00 | 0.00 | 38 | 1011.7 |
| 20260504172344 | 69 | 160 | 1.0 | 7.0 | 0.00 | 0.00 | 0.00 | 39 | 1011.7 |
| 20260504171838 | 69 | 148 | 1.0 | 7.0 | 0.00 | 0.00 | 0.00 | 37 | 1012.0 |
| 20260504171331 | 69 | 192 | 1.0 | 4.0 | 0.00 | 0.00 | 0.00 | 35 | 1012.0 |
| 20260504170320 | 69 | 231 | 0.0 | 4.0 | 0.00 | 0.00 | 0.00 | 38 | 1012.2 |
| 20260504160233 | 65 | 223 | 1.0 | 9.0 | 0.00 | 0.00 | 0.00 | 39 | 1012.6 |
| 20260504150727 | 64 | 233 | 1.0 | 7.0 | 0.00 | 0.00 | 0.00 | 41 | 1013.4 |
| 20260504140725 | 62 | 221 | 1.0 | 9.0 | 0.00 | 0.00 | 0.00 | 43 | 1013.9 |
| 20260504140225 | 61 | 308 | 1.0 | 9.0 | 0.00 | 0.00 | 0.00 | 44 | 1013.9 |
| 20260504130719 | 56 | 212 | 0.0 | 2.0 | 0.00 | 0.00 | 0.00 | 52 | 1014.2 |
| 20260504130219 | 56 | 180 | 0.0 | 2.0 | 0.00 | 0.00 | 0.00 | 54 | 1014.3 |
| 20260504120122 | 0 | 0.0 | 0.0 | 0.00 | 0.00 | 0.00 | 1014.5 | ||
| 20260504110218 | 0 | 0.0 | 0.0 | 0.00 | 0.00 | 0.00 | 1014.2 | ||
| 20260504081812 | 43 | 310 | 0.0 | 0.0 | 0.00 | 0.00 | 0.00 | 67 | 1013.8 |
| 20260504080756 | 44 | 311 | 0.0 | 0.0 | 0.00 | 0.00 | 0.00 | 67 | 1013.6 |
| 20260504080251 | 44 | 311 | 0.0 | 0.0 | 0.00 | 0.00 | 0.00 | 67 | 1013.6 |
| 20260504070248 | 44 | 97 | 0.0 | 0.0 | 0.00 | 0.00 | 0.00 | 66 | 1013.5 |
| 20260504060248 | 44 | 34 | 0.0 | 0.0 | 0.00 | 0.00 | 0.00 | 65 | 1013.4 |
| 20260504050645 | 44 | 4 | 0.0 | 0.0 | 0.00 | 0.00 | 0.00 | 65 | 1013.3 |
| 20260504050145 | 45 | 4 | 0.0 | 0.0 | 0.00 | 0.00 | 0.00 | 64 | 1013.2 |
| 20260504045645 | 45 | 4 | 0.0 | 0.0 | 0.00 | 0.00 | 0.00 | 62 | 1013.3 |
| 20260504045145 | 45 | 4 | 0.0 | 0.0 | 0.00 | 0.00 | 0.00 | 62 | 1013.2 |
| 20260504043640 | 45 | 348 | 0.0 | 0.0 | 0.00 | 0.00 | 0.00 | 61 | 1013.3 |
| 20260504043137 | 45 | 349 | 0.0 | 0.0 | 0.00 | 0.00 | 0.00 | 61 | 1013.2 |
| 20260504042638 | 45 | 348 | 0.0 | 0.0 | 0.00 | 0.00 | 0.00 | 61 | 1013.2 |
| 20260504042138 | 45 | 347 | 0.0 | 0.0 | 0.00 | 0.00 | 0.00 | 62 | 1013.2 |
| 20260504041637 | 44 | 347 | 0.0 | 0.0 | 0.00 | 0.00 | 0.00 | 63 | 1013.2 |
| 20260504040632 | 45 | 347 | 0.0 | 0.0 | 0.00 | 0.00 | 0.00 | 63 | 1013.2 |
| 20260504040131 | 46 | 347 | 0.0 | 0.0 | 0.00 | 0.00 | 0.00 | 62 | 1013.2 |
| 20260504035628 | 46 | 347 | 0.0 | 0.0 | 0.00 | 0.00 | 0.00 | 57 | 1013.1 |
| 20260504035126 | 46 | 347 | 0.0 | 0.0 | 0.00 | 0.00 | 0.00 | 57 | 1013.1 |
| 20260504034624 | 46 | 347 | 0.0 | 0.0 | 0.00 | 0.00 | 0.00 | 58 | 1013.1 |
| 20260504034120 | 46 | 347 | 0.0 | 0.0 | 0.00 | 0.00 | 0.00 | 58 | 1013.0 |
| 20260504033622 | 46 | 347 | 0.0 | 0.0 | 0.00 | 0.00 | 0.00 | 59 | 1013.0 |
| 20260504033121 | 46 | 347 | 0.0 | 0.0 | 0.00 | 0.00 | 0.00 | 59 | 1013.1 |
| 20260504032621 | 46 | 347 | 0.0 | 0.0 | 0.00 | 0.00 | 0.00 | 59 | 1013.1 |
| 20260504031621 | 46 | 347 | 0.0 | 0.0 | 0.00 | 0.00 | 0.00 | 59 | 1013.1 |
| 20260504031118 | 46 | 347 | 0.0 | 0.0 | 0.00 | 0.00 | 0.00 | 58 | 1013.1 |
| 20260504030619 | 46 | 347 | 0.0 | 0.0 | 0.00 | 0.00 | 0.00 | 58 | 1013.0 |
| 20260504030118 | 46 | 347 | 0.0 | 0.0 | 0.00 | 0.00 | 0.00 | 58 | 1013.0 |
| 20260504025619 | 46 | 347 | 0.0 | 0.0 | 0.00 | 0.00 | 0.00 | 57 | 1013.0 |
| 20260504025120 | 46 | 347 | 0.0 | 0.0 | 0.00 | 0.00 | 0.00 | 57 | 1013.0 |
| 20260504024619 | 46 | 347 | 0.0 | 0.0 | 0.00 | 0.00 | 0.00 | 58 | 1013.0 |
| 20260504024118 | 46 | 347 | 0.0 | 0.0 | 0.00 | 0.00 | 0.00 | 57 | 1013.1 |
| 20260504023118 | 46 | 347 | 0.0 | 0.0 | 0.00 | 0.00 | 0.00 | 58 | 1013.1 |
| 20260504022619 | 46 | 347 | 0.0 | 0.0 | 0.00 | 0.00 | 0.00 | 57 | 1013.2 |
| 20260504022120 | 46 | 347 | 0.0 | 0.0 | 0.00 | 0.00 | 0.00 | 57 | 1013.2 |
| 20260504021618 | 46 | 347 | 0.0 | 0.0 | 0.00 | 0.00 | 0.00 | 55 | 1013.2 |
| 20260504021119 | 46 | 347 | 0.0 | 0.0 | 0.00 | 0.00 | 0.00 | 55 | 1013.2 |
| 20260504020119 | 47 | 347 | 0.0 | 0.0 | 0.00 | 0.00 | 0.00 | 54 | 1013.1 |